STARLINK-33678, 63509

Orbit data source: Space-Track

STARLINK-33678, 63509 is a payload satellite owned by SpaceX/Seattle (US) in LEO that was launched on Mon, 07 Apr 2025 UTC via an FALCON 9 launch vehicle from the Air Force Western Test Range (AFWTR). Payload-class satellites include a variety of spacecraft equipped with specific instruments for various scientific and technological missions. These include communications satellites like Starlink; space stations such as the ISS; scientific satellites like the Hubble; Earth observation satellites from companies like Planet Labs, Umbra, and HawkEye 360; GPS; miniature CubeSats for education and research; and military/defense satellites.

Loading next visibility...
Identifier
63509, 2025-071S
Orbit
LEO
Last TLE update
17 hours ago
Origin
Manufacturer
SpaceX/Seattle
Mission
Operational Commercial Communications
Bus & Motor
STARLINK V2MO, Unknown motor
Mass
575 kg wet, ~530 kg dry
Launch date (UTC)
2025-04-07 (1 month ago)
Launch vehicle
FALCON 9
Launch site
Air Force Western Test Range (AFWTR)
Object type
Payload
Rocket body
Debris
Shape & HBR
Box + 1 Pan, 29 m
Radar Cross Section
41.120 m², Large (>1 m²)

Expand to show TLE details & history

TLE from 17 hours ago
0 STARLINK-33678
1 63509U 25071S   25129.25002315 -.01366402  00000-0 -24182-1 0  9997
2 63509  53.1599 116.9527 0001148  70.7090  49.0029 15.52709515  5846
Epoch: 2025-05-09T06:00Z
Definitive object data (Epoch: 2025-05-09T06:00:02Z)
Latitude
44.16997°
Longitude
-66.72795°
Altitude
412.8 km
Speed
7.669 km/s
True Right ascension
16h 42m 21s
True Declination
43° 59' 22"
Sunlit
Object was in full shadow at TLE epoch
Visualization TLE readout
Latitude
-34.88386°
Longitude
7.43778°
Altitude
426.717 km
Speed
7.655 km/s
Apparent Right ascension
20h 43m 06s
Apparent Declination
-38° 05' 36"
Sunlit
Object is in daylight
Visualization observer readout
Local Sidereal Time
07:39:08
Azimuth
273.238° WNW
Elevation
-77.457°
Doppler factor
1
Orbital elements
Apogee altitude
409.857 km
Perigee altitude
408.299 km
Semi-major axis
6,787.215 km
Eccentricity
0.0001148
Inclination
53.1599°
RAAN
116.9527°
Arg. of periapsis
70.709°
True anomaly
49.01283°
Mean anomaly
49.0029°
Eccentric anomaly
49.00786°
Mean motion
3.88156 °/min
BSTAR
-0.024182
Orbital period
92.75 mins
Loading maneuver chart data...
Loading SW <> Apogee altitude chart data...
Loading historical data...
Loading historical data...
Loading historical data...
Loading historical data...
Loading historical data...
Loading historical data...
Loading historical data...

STARLINK-33678 Visibility forecast

Observer location: undefined°, undefined°

Span
Click to sort rows by Start time (UTC) header in descending order
Start Az.
Max El. time (UTC)
Max El. Az.
Max El.
End time (UTC)
End Az.
6 mins2025-05-10 01:45:30.898Z224.287° SW2025-05-10 01:48:30.898Z153.249° SSE44.31°2025-05-10 01:51:30.898Z52.818° ENE
5 mins2025-05-10 08:16:30.898Z325.378° NNW2025-05-10 08:18:30.898Z48.44° ENE39.358°2025-05-10 08:21:30.898Z116.193° SE
|